Tracking 19559 objects as of 26-Mar-2019
HD Live streaming from Space Station
objects crossing your sky now

IRIDIUM 147

Track IRIDIUM 147 now!
10-day predictions
IRIDIUM 147 is classified as:


NORAD ID: 43480
Int'l Code: 2018-047E
Perigee: 783.0 km
Apogee: 786.6 km
Inclination: 86.4 °
Period: 100.4 minutes
Semi major axis: 7155 km
RCS: Unknown
Launch date: May 22, 2018
Source: United States (US)
Launch site: AIR FORCE WESTERN TEST RANGE (AFWTR)
aabbcc
Your satellite tracking list
Your tracking list is empty




NASA's NSSDC Master Catalog

Two Line Element Set (TLE):
1 43480U 18047E   19084.92788838 +.00000079 +00000-0 +21040-4 0  9991
2 43480 086.3928 111.7513 0002533 090.4028 269.7458 14.34219697044052
Source of the keplerian elements: AFSPC